Stündliche Wetter Bolshie Lyzki

Heute, 17 Juni, Donnerstag

Zeit Temperatur Niederschläge Wind Luftdruck Luftfeuchtigkeit
00:00 +14°C° 0 mm 2 m/S 747 mmHg 80%
01:00 +13°C° 0 mm 2 m/S 748 mmHg 81%
02:00 +13°C° 0 mm 2 m/S 748 mmHg 82%
03:00 +13°C° 0 mm 2 m/S 748 mmHg 82%
04:00 +13°C° 0 mm 2 m/S 749 mmHg 82%
05:00 +13°C° 0 mm 2 m/S 749 mmHg 82%
06:00 +15°C° 0 mm 2 m/S 749 mmHg 77%
07:00 +17°C° 0 mm 2 m/S 750 mmHg 72%
08:00 +19°C° 0 mm 2 m/S 750 mmHg 66%
09:00 +20°C° 0 mm 2 m/S 750 mmHg 62%
10:00 +23°C° 0 mm 2 m/S 750 mmHg 57%
11:00 +24°C° 0 mm 2 m/S 751 mmHg 52%
12:00 +24°C° 0 mm 3 m/S 751 mmHg 51%
13:00 +24°C° 0 mm 3 m/S 751 mmHg 51%
14:00 +25°C° 0 mm 3 m/S 751 mmHg 50%
15:00 +25°C° 0 mm 2 m/S 751 mmHg 54%
16:00 +24°C° 0 mm 2 m/S 751 mmHg 58%
17:00 +24°C° 0 mm 2 m/S 750 mmHg 62%
18:00 +23°C° 0 mm 2 m/S 751 mmHg 67%
19:00 +20°C° 0 mm 2 m/S 751 mmHg 71%
20:00 +18°C° 0 mm 2 m/S 751 mmHg 76%
21:00 +17°C° 0 mm 2 m/S 751 mmHg 78%
22:00 +16°C° 0 mm 2 m/S 751 mmHg 81%
23:00 +15°C° 0 mm 2 m/S 751 mmHg 83%

Morgen, 18 Juni, Freitag

Zeit Temperatur Niederschläge Wind Luftdruck Luftfeuchtigkeit
00:00 +15°C° 0 mm 2 m/S 752 mmHg 84%
01:00 +14°C° 0 mm 2 m/S 752 mmHg 85%
02:00 +14°C° 0 mm 1 m/S 752 mmHg 86%
03:00 +14°C° 0 mm 1 m/S 752 mmHg 86%
04:00 +15°C° 0 mm 1 m/S 752 mmHg 86%
05:00 +15°C° 0 mm 2 m/S 752 mmHg 85%
06:00 +17°C° 0 mm 2 m/S 752 mmHg 80%
07:00 +18°C° 0 mm 2 m/S 753 mmHg 75%
08:00 +20°C° 0 mm 2 m/S 753 mmHg 69%
09:00 +21°C° 0 mm 3 m/S 753 mmHg 64%
10:00 +22°C° 0 mm 3 m/S 753 mmHg 59%
11:00 +24°C° 0 mm 3 m/S 753 mmHg 54%
12:00 +25°C° 0 mm 3 m/S 752 mmHg 53%
13:00 +25°C° 0 mm 3 m/S 752 mmHg 52%
14:00 +26°C° 0 mm 3 m/S 752 mmHg 50%
15:00 +26°C° 0 mm 2 m/S 752 mmHg 54%
16:00 +25°C° 0 mm 2 m/S 751 mmHg 58%
17:00 +25°C° 0 mm 2 m/S 751 mmHg 62%
18:00 +24°C° 0 mm 2 m/S 751 mmHg 66%
19:00 +21°C° 0 mm 2 m/S 751 mmHg 71%
20:00 +19°C° 0 mm 2 m/S 751 mmHg 76%
21:00 +18°C° 0 mm 2 m/S 751 mmHg 80%
22:00 +17°C° 0 mm 2 m/S 752 mmHg 84%
23:00 +16°C° 0 mm 2 m/S 752 mmHg 88%

übermorgen, 19 Juni, Samstag

Zeit Temperatur Niederschläge Wind Luftdruck Luftfeuchtigkeit
00:00 +16°C° 0 mm 2 m/S 752 mmHg 89%
01:00 +15°C° 0 mm 2 m/S 752 mmHg 90%
02:00 +15°C° 0 mm 2 m/S 752 mmHg 92%
03:00 +15°C° 0 mm 2 m/S 752 mmHg 91%
04:00 +15°C° 0 mm 2 m/S 752 mmHg 91%
05:00 +16°C° 0 mm 2 m/S 752 mmHg 91%
06:00 +17°C° 0 mm 2 m/S 752 mmHg 85%
07:00 +19°C° 0 mm 2 m/S 752 mmHg 80%
08:00 +21°C° 0 mm 3 m/S 752 mmHg 74%
09:00 +22°C° 0 mm 3 m/S 752 mmHg 70%
10:00 +24°C° 0 mm 3 m/S 752 mmHg 65%
11:00 +25°C° 0 mm 3 m/S 752 mmHg 60%
12:00 +25°C° 0 mm 3 m/S 751 mmHg 58%
13:00 +26°C° 0 mm 3 m/S 751 mmHg 57%
14:00 +26°C° 0 mm 3 m/S 751 mmHg 55%
15:00 +26°C° 0 mm 3 m/S 750 mmHg 58%
16:00 +26°C° 0 mm 2 m/S 750 mmHg 62%
17:00 +26°C° 0 mm 2 m/S 750 mmHg 65%
18:00 +24°C° 0 mm 2 m/S 750 mmHg 71%
19:00 +23°C° 0 mm 2 m/S 750 mmHg 76%
20:00 +20°C° 0 mm 2 m/S 750 mmHg 81%
21:00 +19°C° 0 mm 2 m/S 750 mmHg 85%
22:00 +18°C° 0 mm 2 m/S 750 mmHg 88%
23:00 +17°C° 0 mm 2 m/S 750 mmHg 91%

20 Juni, Sonntag

Zeit Temperatur Niederschläge Wind Luftdruck Luftfeuchtigkeit
00:00 +17°C° 0 mm 2 m/S 750 mmHg 92%
01:00 +17°C° 0 mm 2 m/S 750 mmHg 93%
02:00 +17°C° 0 mm 2 m/S 750 mmHg 94%
03:00 +17°C° 0 mm 2 m/S 750 mmHg 94%
04:00 +17°C° 0 mm 2 m/S 750 mmHg 94%
05:00 +17°C° 0 mm 2 m/S 750 mmHg 93%
06:00 +19°C° 0 mm 2 m/S 750 mmHg 88%
07:00 +21°C° 0 mm 2 m/S 750 mmHg 82%
08:00 +22°C° 0 mm 3 m/S 750 mmHg 77%
09:00 +24°C° 0 mm 3 m/S 750 mmHg 73%
10:00 +25°C° 0 mm 3 m/S 750 mmHg 69%
11:00 +26°C° 0 mm 3 m/S 749 mmHg 65%
12:00 +27°C° 0 mm 3 m/S 749 mmHg 63%
13:00 +28°C° 0 mm 3 m/S 749 mmHg 61%
14:00 +28°C° 0 mm 3 m/S 749 mmHg 59%
15:00 +28°C° 0 mm 3 m/S 748 mmHg 62%
16:00 +28°C° 0 mm 3 m/S 748 mmHg 65%
17:00 +28°C° 0 mm 3 m/S 748 mmHg 68%
18:00 +26°C° 0 mm 2 m/S 748 mmHg 73%
19:00 +24°C° 0 mm 2 m/S 748 mmHg 78%
20:00 +23°C° 0 mm 2 m/S 748 mmHg 84%
21:00 +21°C° 0 mm 2 m/S 748 mmHg 85%
22:00 +20°C° 0 mm 2 m/S 748 mmHg 86%
23:00 +19°C° 0 mm 2 m/S 748 mmHg 88%

21 Juni, Montag

Zeit Temperatur Niederschläge Wind Luftdruck Luftfeuchtigkeit
00:00 +19°C° 0 mm 2 m/S 748 mmHg 90%
01:00 +18°C° 0 mm 2 m/S 748 mmHg 91%
02:00 +17°C° 0 mm 2 m/S 748 mmHg 93%
03:00 +18°C° 0 mm 2 m/S 748 mmHg 93%
04:00 +18°C° 0 mm 2 m/S 748 mmHg 92%
05:00 +18°C° 0 mm 2 m/S 748 mmHg 91%
06:00 +19°C° 0 mm 3 m/S 748 mmHg 85%
07:00 +21°C° 0 mm 3 m/S 748 mmHg 79%
08:00 +24°C° 0 mm 3 m/S 748 mmHg 72%
09:00 +25°C° 0 mm 3 m/S 748 mmHg 68%
10:00 +26°C° 0 mm 3 m/S 748 mmHg 63%
11:00 +27°C° 0 mm 4 m/S 748 mmHg 59%
12:00 +28°C° 0 mm 4 m/S 748 mmHg 58%
13:00 +28°C° 0 mm 4 m/S 747 mmHg 58%
14:00 +29°C° 0 mm 4 m/S 747 mmHg 57%
15:00 +28°C° 0 mm 4 m/S 747 mmHg 61%
16:00 +28°C° 0 mm 4 m/S 747 mmHg 64%
17:00 +28°C° 0 mm 3 m/S 747 mmHg 68%
18:00 +26°C° 0 mm 3 m/S 747 mmHg 73%
19:00 +25°C° 0 mm 3 m/S 747 mmHg 77%
20:00 +22°C° 0 mm 3 m/S 747 mmHg 82%
21:00 +21°C° 0 mm 3 m/S 747 mmHg 85%
22:00 +21°C° 0 mm 3 m/S 747 mmHg 89%
23:00 +20°C° 0 mm 3 m/S 747 mmHg 92%

22 Juni, Dienstag

Zeit Temperatur Niederschläge Wind Luftdruck Luftfeuchtigkeit
00:00 +20°C° 0 mm 3 m/S 747 mmHg 93%
01:00 +19°C° 0 mm 3 m/S 747 mmHg 94%
02:00 +19°C° 0 mm 3 m/S 747 mmHg 95%
03:00 +20°C° 0 mm 3 m/S 747 mmHg 94%
04:00 +20°C° 0 mm 3 m/S 747 mmHg 94%
05:00 +20°C° 0 mm 3 m/S 747 mmHg 93%
06:00 +22°C° 0 mm 3 m/S 747 mmHg 87%
07:00 +23°C° 0 mm 4 m/S 747 mmHg 80%
08:00 +26°C° 0 mm 4 m/S 748 mmHg 74%
09:00 +27°C° 0 mm 4 m/S 748 mmHg 69%
10:00 +28°C° 0 mm 4 m/S 748 mmHg 64%
11:00 +29°C° 0 mm 5 m/S 748 mmHg 59%
12:00 +30°C° 0 mm 4 m/S 748 mmHg 58%
13:00 +30°C° 0 mm 4 m/S 748 mmHg 58%
14:00 +32°C° 0 mm 4 m/S 747 mmHg 57%
15:00 +30°C° 0 mm 4 m/S 747 mmHg 60%
16:00 +30°C° 0 mm 3 m/S 747 mmHg 64%
17:00 +29°C° 0 mm 3 m/S 747 mmHg 67%
18:00 +28°C° 0 mm 3 m/S 747 mmHg 70%
19:00 +26°C° 0 mm 3 m/S 747 mmHg 74%
20:00 +25°C° 0 mm 3 m/S 747 mmHg 77%
21:00 +24°C° 0 mm 3 m/S 747 mmHg 80%
22:00 +22°C° 0 mm 3 m/S 748 mmHg 83%
23:00 +21°C° 0 mm 3 m/S 748 mmHg 86%
Mehr zeigen

Wir brauchen deine Erlaubnis

Meteoprog und unser Service Anbieter werden persönliche Daten aufbewahren, so wie Cookies, Geräte Bezeichnung oder ähnliche Technologien von deinem Gerät und Prozess, so wie Persönliche Daten Inhalte und Werbungen, genauso wie social Media und den Verkehr zu analysieren.

  • Aufbewahrung und/oder Zugang zu deiner Geräte Informationen.

    Cookies, Geräte Bezeichnung oder andere Informationen, können aufbewahrt oder Zugang zu deinem Gerät erhalten, für den Grund, der oben angegeben wird.

  • Personalisierte Werbung und Inhalte, Messungen, Einblick in das Publikum und Produkt Entwicklung.

    Werbungen und Inhalte können personalisiert werden, basierend auf ein Profil. Mehr Daten können besser personalisierte Werbungen und Inhalte hinzufügen. Werbung und Inhalte können gezeigt und gemessen werden. Einblicke über das Publikum, welche die Werbung gesehen haben und den Inhalt, können abgeleitet werden. So wie Daten können genutzt werden, um es zu verbessern oder die Benutzer Erfahrung zu verbessern das System und die Software.

Wenn du “Ich stimme zu” klickst, erlaubst du uns, die Cookies zu benutzen die Geräte Bezeichnung, den Web oder ähnliche Technologien zu benutzen. Deine Settings, können in deinem Gerät bei deinem Browser geändert werden.

Für den bestimmten Zweck, berechtigten Interessen beruhen darauf, mehr als auf den Inhalt. Du kannst mehr darüber in unseren Privaten und Cookie Politik lesen.